Home   Weather   Greece   Thessaloniki   Past weeks
Flag for Greece

Past Weather in Thessaloniki, Greece — Yesterday and Last 2 Weeks

Currently: 34 °F. Passing clouds. (Weather station: Thessaloniki Airport, Greece). See more current weather

Past Weather in Thessaloniki — Graph

°F

Thessaloniki Temperature Yesterday

Maximum temperature yesterday: 41 °F (at 12:50 am)
Minimum temperature yesterday: 34 °F (at 11:20 pm)
Average temperature yesterday: 37 °F

High & Low Weather Summary for the Past Weeks

 TemperatureHumidityPressure
High63 °F (Jan 23, 11:20 am)100% (Jan 22, 7:20 am)30.36 "Hg (Jan 22, 7:20 am)
Low32 °F (Feb 2, 6:20 am)33% (Feb 2, 2:50 pm)29.68 "Hg (Jan 27, 5:50 am)
Average46 °F68%30.07 "Hg
* Reported Jan 22 12:20 am — Feb 6 12:50 am, Thessaloniki. Weather by CustomWeather, © 2023

Note: Actual official high and low records may vary slightly from our data, if they occured in-between our weather recording intervals... More about our weather records

Thessaloniki Weather History for the Previous 24 Hours

Scroll right to see more
 ConditionsComfort  
Time TempWeatherWind HumidityBarometerVisibility
12:50 am
Mon, Feb 6
34 °FPassing clouds.20 mph56%30.21 "HgN/A
12:20 am36 °FPassing clouds.18 mph48%30.21 "HgN/A
11:50 pm
Sun, Feb 5
36 °FPassing clouds.18 mph48%30.21 "HgN/A
11:20 pm34 °FPassing clouds.18 mph51%30.21 "HgN/A
10:50 pm36 °FPassing clouds.20 mph48%30.21 "HgN/A
10:20 pm36 °FPassing clouds.20 mph52%30.21 "HgN/A
9:50 pm36 °FPassing clouds.20 mph52%30.18 "HgN/A
9:20 pm36 °FPassing clouds.20 mph52%30.18 "HgN/A
8:50 pm36 °FPassing clouds.21 mph52%30.18 "HgN/A
8:20 pm36 °FPassing clouds.20 mph52%30.18 "HgN/A
7:50 pm36 °FPassing clouds.20 mph52%30.18 "HgN/A
7:20 pm37 °FPassing clouds.20 mph52%30.15 "HgN/A
6:50 pm37 °FPassing clouds.17 mph52%30.15 "HgN/A
6:20 pm37 °FPassing clouds.21 mph52%30.15 "HgN/A
5:50 pm37 °FPassing clouds.21 mph52%30.12 "HgN/A
5:20 pm37 °FPassing clouds.21 mph52%30.12 "HgN/A
4:50 pm37 °FPassing clouds.21 mph56%30.12 "HgN/A
4:20 pm37 °FPassing clouds.24 mph60%30.12 "HgN/A
3:50 pm39 °FScattered clouds.24 mph56%30.12 "HgN/A
3:20 pm39 °FScattered clouds.23 mph52%30.09 "HgN/A
2:20 pm39 °FPartly sunny.28 mph52%30.09 "HgN/A
1:50 pm39 °FPartly sunny.25 mph56%30.09 "HgN/A
1:20 pm37 °FPartly sunny.23 mph56%30.09 "HgN/A
12:50 pm37 °FPartly sunny.23 mph52%30.12 "HgN/A
12:20 pm37 °FPartly sunny.22 mph56%30.12 "HgN/A
11:50 am37 °FPartly sunny.24 mph56%30.12 "HgN/A
11:20 am37 °FPartly sunny.23 mph52%30.12 "HgN/A
10:50 am37 °FPartly sunny.21 mph52%30.09 "HgN/A
10:20 am36 °FOvercast.17 mph56%30.09 "HgN/A
9:50 am36 °FOvercast.18 mph56%30.09 "HgN/A
9:20 am37 °FOvercast.16 mph48%30.09 "HgN/A
8:50 am37 °FPartly sunny.20 mph48%30.07 "HgN/A
8:20 am37 °FPartly sunny.17 mph52%30.07 "HgN/A
7:50 am37 °FScattered clouds.20 mph48%30.04 "HgN/A
7:20 am37 °FPassing clouds.17 mph48%30.01 "HgN/A
6:50 am37 °FPassing clouds.20 mph52%30.01 "HgN/A
6:20 am37 °FPassing clouds.22 mph52%30.01 "HgN/A
5:50 am37 °FPassing clouds.26 mph52%30.01 "HgN/A
5:20 am37 °FPassing clouds.28 mph56%30.01 "HgN/A
4:50 am37 °FPassing clouds.28 mph56%30.01 "HgN/A
4:20 am39 °FPassing clouds.29 mph52%30.01 "HgN/A
3:50 am39 °FPassing clouds.29 mph52%30.01 "HgN/A
3:20 am39 °FPassing clouds.32 mph52%30.01 "HgN/A
2:50 am39 °FPassing clouds.32 mph56%29.98 "HgN/A
Weather by CustomWeather, © 2023

See weather overview